Grand Rapids, MN

11:21 AM CST on December 03, 2016 (GMT -0600)
Grand Rapids-Itasca County-Newstrom Field

Weather History for KGPZ - November, 2013

Change the Weather History Date:

Tuesday, November 19, 2013

  Actual Average Record
Temperature  
Mean Temperature 27 °F -  
Max Temperature 39 °F 33 °F 53 °F (2012)
Min Temperature 15 °F 20 °F -14 °F (1932)
Degree Days  
Heating Degree Days 38    
Moisture  
Dew Point 18 °F    
Average Humidity 70    
Maximum Humidity 93    
Minimum Humidity 52    
Precipitation  
Precipitation 0.00 in - - ()
Sea Level Pressure  
Sea Level Pressure 29.98 in    
Wind  
Wind Speed 8 mph (SE)    
Max Wind Speed 23 mph    
Max Gust Speed 34 mph    
Visibility 10 miles    
Events      
Averages and records for this station are not official NWS values.
T = Trace of Precipitation, MM = Missing Value Source: NWS Daily Summary

Daily Weather History Graph

Daily Weather History Graph

Search for Another Location

Airport or City:

Trip Planner

Search our weather history database for the weather conditions in past years. The results will help you decide how hot, cold, wet, or windy it might be!

Date:

Astronomy

Nov. 19, 2013 Rise Set
Actual Time 7:24 AM CST 4:34 PM CST
Civil Twilight 6:50 AM CST 5:08 PM CST
Nautical Twilight 6:12 AM CST 5:45 PM CST
Astronomical Twilight 5:36 AM CST 6:21 PM CST
Moon 6:24 PM CST (11/19) 9:05 AM CST (11/19)
Length of Visible Light 10h 17m
Length of Day
9h 10m
Waning Gibbous, 96% of the Moon is Illuminated
Nov 19
Waning Gibbous
Nov 25
Last Quarter
Dec 2
New
Dec 9
First Quarter
Dec 17
Full

Hourly Weather History & Observations

Time (CST) Temp. Windchill Dew Point Humidity Pressure Visibility Wind Dir Wind Speed Gust Speed Precip Events Conditions
12:15 AM 17.6 °F - 12.2 °F 79% 30.19 in 10.0 mi Calm Calm - N/A   Clear
12:35 AM 17.6 °F - 12.2 °F 79% 30.19 in 10.0 mi Calm Calm - N/A   Scattered Clouds
12:55 AM 15.8 °F 10.2 °F 12.2 °F 86% 30.18 in 10.0 mi South 3.5 mph - N/A   Scattered Clouds
1:15 AM 17.6 °F - 14.0 °F 86% 30.18 in 10.0 mi Calm Calm - N/A   Mostly Cloudy
1:35 AM 17.6 °F - 15.8 °F 93% 30.18 in 10.0 mi Calm Calm - N/A   Overcast
1:55 AM 15.8 °F - 12.2 °F 86% 30.19 in 10.0 mi Calm Calm - N/A   Scattered Clouds
2:15 AM 17.6 °F - 12.2 °F 79% 30.19 in 10.0 mi Calm Calm - N/A   Mostly Cloudy
2:35 AM 17.6 °F - 14.0 °F 86% 30.20 in 10.0 mi Calm Calm - N/A   Overcast
2:55 AM 17.6 °F - 15.8 °F 93% 30.19 in 10.0 mi Calm Calm - N/A   Overcast
3:15 AM 17.6 °F 10.7 °F 15.8 °F 93% 30.18 in 10.0 mi SE 4.6 mph - N/A   Overcast
3:35 AM 17.6 °F 12.3 °F 14.0 °F 86% 30.18 in 10.0 mi SE 3.5 mph - N/A   Mostly Cloudy
3:55 AM 17.6 °F 12.3 °F 14.0 °F 86% 30.18 in 10.0 mi SE 3.5 mph - N/A   Clear
4:15 AM 17.6 °F 10.7 °F 14.0 °F 86% 30.18 in 10.0 mi SSE 4.6 mph - N/A   Clear
4:35 AM 17.6 °F 8.2 °F 14.0 °F 86% 30.17 in 10.0 mi SE 6.9 mph - N/A   Clear
4:55 AM 17.6 °F 9.3 °F 12.2 °F 79% 30.18 in 10.0 mi SE 5.8 mph - N/A   Clear
5:15 AM 17.6 °F 9.3 °F 12.2 °F 79% 30.17 in 10.0 mi SE 5.8 mph - N/A   Clear
5:35 AM 17.6 °F 7.3 °F 14.0 °F 86% 30.16 in 10.0 mi SE 8.1 mph - N/A   Clear
5:55 AM 17.6 °F 6.4 °F 14.0 °F 86% 30.15 in 10.0 mi SE 9.2 mph - N/A   Clear
6:15 AM 17.6 °F 7.3 °F 12.2 °F 79% 30.14 in 10.0 mi SE 8.1 mph - N/A   Clear
6:35 AM 17.6 °F 5.0 °F 14.0 °F 86% 30.14 in 10.0 mi SSE 11.5 mph - N/A   Clear
6:55 AM 19.4 °F 8.6 °F 14.0 °F 80% 30.13 in 10.0 mi SE 9.2 mph - N/A   Clear
7:15 AM 19.4 °F 7.9 °F 14.0 °F 80% 30.13 in 10.0 mi SE 10.4 mph - N/A   Clear
7:35 AM 19.4 °F 9.5 °F 14.0 °F 80% 30.12 in 10.0 mi SE 8.1 mph - N/A   Clear
7:55 AM 19.4 °F 10.4 °F 14.0 °F 80% 30.11 in 10.0 mi SE 6.9 mph - N/A   Clear
8:15 AM 19.4 °F 8.6 °F 14.0 °F 80% 30.11 in 10.0 mi SSE 9.2 mph - N/A   Clear
8:35 AM 19.4 °F 8.6 °F 15.8 °F 86% 30.11 in 10.0 mi SE 9.2 mph 18.4 mph N/A   Clear
8:55 AM 19.4 °F 8.6 °F 15.8 °F 86% 30.10 in 10.0 mi SE 9.2 mph 16.1 mph N/A   Clear
9:15 AM 21.2 °F 11.7 °F 17.6 °F 86% 30.10 in 10.0 mi SE 8.1 mph 17.3 mph N/A   Clear
9:35 AM 21.2 °F 10.1 °F 17.6 °F 86% 30.09 in 10.0 mi SE 10.4 mph - N/A   Clear
9:55 AM 23.0 °F 12.4 °F 17.6 °F 80% 30.08 in 10.0 mi SE 10.4 mph 17.3 mph N/A   Clear
10:15 AM 23.0 °F 11.7 °F 17.6 °F 80% 30.07 in 10.0 mi SE 11.5 mph 19.6 mph N/A   Clear
10:35 AM 24.8 °F 16.1 °F 17.6 °F 74% 30.06 in 10.0 mi SE 8.1 mph - N/A   Clear
10:55 AM 24.8 °F 14.0 °F 17.6 °F 74% 30.05 in 10.0 mi SE 11.5 mph - N/A   Partly Cloudy
11:15 AM 26.6 °F 16.2 °F 19.4 °F 74% 30.02 in 10.0 mi SE 11.5 mph 16.1 mph N/A   Partly Cloudy
11:35 AM 26.6 °F 18.2 °F 17.6 °F 69% 30.02 in 10.0 mi SE 8.1 mph 17.3 mph N/A   Clear
11:55 AM 28.4 °F 19.1 °F 19.4 °F 69% 29.99 in 10.0 mi SE 10.4 mph 17.3 mph N/A   Clear
12:15 PM 30.2 °F 20.2 °F 19.4 °F 64% 29.97 in 10.0 mi SE 12.7 mph - N/A   Clear
12:35 PM 30.2 °F 19.8 °F 17.6 °F 60% 29.96 in 10.0 mi SE 13.8 mph 19.6 mph N/A   Clear
12:55 PM 32.0 °F 22.5 °F 17.6 °F 55% 29.95 in 10.0 mi SSE 12.7 mph 24.2 mph N/A   Clear
1:15 PM 33.8 °F 23.9 °F 17.6 °F 52% 29.93 in 10.0 mi SE 15.0 mph 28.8 mph N/A   Clear
1:35 PM 33.8 °F 23.5 °F 17.6 °F 52% 29.92 in 10.0 mi SE 16.1 mph 27.6 mph N/A   Clear
1:55 PM 35.6 °F 24.5 °F 19.4 °F 52% 29.90 in 10.0 mi SSE 20.7 mph 29.9 mph N/A   Clear
2:15 PM 35.6 °F 25.2 °F 19.4 °F 52% 29.89 in 10.0 mi SSE 18.4 mph 27.6 mph N/A   Partly Cloudy
2:35 PM 35.6 °F 24.8 °F 19.4 °F 52% 29.88 in 10.0 mi SSE 19.6 mph 27.6 mph N/A   Clear
2:55 PM 35.6 °F 25.5 °F 19.4 °F 52% 29.87 in 10.0 mi SSE 17.3 mph 27.6 mph N/A   Clear
3:15 PM 35.6 °F 25.9 °F 19.4 °F 52% 29.87 in 10.0 mi SSE 16.1 mph 24.2 mph N/A   Scattered Clouds
3:35 PM 35.6 °F 24.8 °F 19.4 °F 52% 29.85 in 10.0 mi SSE 19.6 mph 26.5 mph N/A   Partly Cloudy
3:55 PM 35.6 °F 24.5 °F 19.4 °F 52% 29.84 in 10.0 mi SSE 20.7 mph 26.5 mph N/A   Clear
4:15 PM 35.6 °F 24.5 °F 19.4 °F 52% 29.83 in 10.0 mi SSE 20.7 mph 26.5 mph N/A   Clear
4:35 PM 35.6 °F 26.2 °F 19.4 °F 52% 29.83 in 10.0 mi SSE 15.0 mph 21.9 mph N/A   Clear
4:55 PM 35.6 °F 25.5 °F 19.4 °F 52% 29.82 in 10.0 mi SSE 17.3 mph 25.3 mph N/A   Clear
5:15 PM 35.6 °F 24.5 °F 21.2 °F 56% 29.81 in 10.0 mi SSE 20.7 mph 27.6 mph N/A   Partly Cloudy
5:35 PM 35.6 °F 25.2 °F 21.2 °F 56% 29.80 in 10.0 mi SSE 18.4 mph 26.5 mph N/A   Partly Cloudy
5:55 PM 35.6 °F 24.5 °F 21.2 °F 56% 29.79 in 10.0 mi SSE 20.7 mph 26.5 mph N/A   Clear
6:15 PM 35.6 °F 24.0 °F 21.2 °F 56% 29.78 in 10.0 mi SSE 23.0 mph 27.6 mph N/A   Clear
6:35 PM 37.4 °F 26.6 °F 21.2 °F 52% 29.79 in 10.0 mi SSE 21.9 mph 28.8 mph N/A   Mostly Cloudy
6:55 PM 37.4 °F 26.6 °F 23.0 °F 56% 29.78 in 10.0 mi SSE 21.9 mph 34.5 mph N/A   Mostly Cloudy
7:15 PM 37.4 °F 27.5 °F 23.0 °F 56% 29.79 in 10.0 mi SSE 18.4 mph 26.5 mph N/A   Scattered Clouds
7:35 PM 37.4 °F 26.4 °F 23.0 °F 56% 29.79 in 10.0 mi SSE 23.0 mph 27.6 mph N/A   Clear
7:55 PM 37.4 °F 26.6 °F 24.8 °F 60% 29.79 in 10.0 mi SSE 21.9 mph 28.8 mph N/A   Clear
8:15 PM 37.4 °F 27.5 °F 24.8 °F 60% 29.79 in 10.0 mi SSE 18.4 mph 33.4 mph N/A   Partly Cloudy
8:35 PM 37.4 °F 27.8 °F 24.8 °F 60% 29.79 in 10.0 mi SSE 17.3 mph 26.5 mph N/A   Partly Cloudy
8:55 PM 37.4 °F 28.2 °F 24.8 °F 60% 29.78 in 10.0 mi SSE 16.1 mph 23.0 mph N/A   Clear
9:15 PM 37.4 °F 27.2 °F 24.8 °F 60% 29.78 in 10.0 mi SSE 19.6 mph 28.8 mph N/A   Clear
9:35 PM 37.4 °F 27.8 °F 24.8 °F 60% 29.77 in 10.0 mi SSE 17.3 mph 28.8 mph N/A   Clear
9:55 PM 37.4 °F 27.2 °F 26.6 °F 65% 29.77 in 10.0 mi SSE 19.6 mph 27.6 mph N/A   Clear
10:15 PM 37.4 °F 27.2 °F 24.8 °F 60% 29.77 in 10.0 mi SSE 19.6 mph 26.5 mph N/A   Clear
10:35 PM 37.4 °F 26.9 °F 26.6 °F 65% 29.76 in 10.0 mi SSE 20.7 mph 31.1 mph N/A   Clear
10:55 PM 37.4 °F 26.4 °F 26.6 °F 65% 29.75 in 10.0 mi SSE 23.0 mph 28.8 mph N/A   Clear
11:15 PM 37.4 °F 26.6 °F 26.6 °F 65% 29.76 in 10.0 mi SSE 21.9 mph 33.4 mph N/A   Clear
11:35 PM 39.2 °F 29.0 °F 26.6 °F 61% 29.76 in 10.0 mi South 21.9 mph 29.9 mph N/A   Clear
11:55 PM 39.2 °F 29.6 °F 26.6 °F 61% 29.76 in 10.0 mi South 19.6 mph 28.8 mph N/A   Clear